Regional Weather Roundup
Issued by NWS Mt. Holly, NJ

Home | Current Version | Previous Version | Text Only | Print | Product List | Glossary On
Versions: 1 2 3 4 5 6 7 8 9 10 11 12 13 14 15 16 17 18 19 20 21 22 23 24 25 26 27 28 29 30 31 32 33 34 35 36 37 38 39 40 41 42 43 44 45 46 47 48 49 50
000
ASUS41 KPHI 060411
RWRPHI

REGIONAL WEATHER ROUNDUP
NATIONAL WEATHER SERVICE MOUNT HOLLY NJ
1100 PM EST THU MAR 05 2015

NOTE:  "FAIR" INDICATES FEW OR NO CLOUDS BELOW 12,000 FEET WITH NO
SIGNIFICANT WEATHER AND/OR OBSTRUCTIONS TO VISIBILITY.

 * = STATION DOES NOT REPORT PRECIPITATION (E.G. RAIN, SNOW, ETC.)
        OR FOG.

NJZ015>026-060500-
SOUTHERN NEW JERSEY

CITY           SKY/WX    TMP DP  RH WIND       PRES   REMARKS
POMONA         CLOUDY    20  13  74 NW16      30.36R WCI   6
RIO GRANDE*    CLOUDY    21  10  63 N10G18    30.38R WCI  10
MILLVILLE      CLOUDY    21  32 100 NW10      30.39R WCI  10
WRIGHTSTOWN    CLOUDY    20  10  65 NW16      30.35R WCI   5
MOUNT HOLLY    CLOUDY    20   7  57 NW13G21   30.40R WCI   7
TRENTON        CLOUDY    19   6  57 NW10      30.37R WCI   7

$$
NJZ001>014-060500-
NORTHERN NEW JERSEY

CITY           SKY/WX    TMP DP  RH WIND       PRES   REMARKS
SUSSEX         PTCLDY    16   0  49 N3        30.37R
ANDOVER*         N/A     15   1  53 N14G25    30.36R WCI   0
MORRISTOWN     MOCLDY    21   5  49 N9        30.37R WCI  11
NEWARK         CLOUDY    21   7  54 NW14G24   30.36R WCI   8
TETERBORO      CLOUDY    20   3  48 N9G22     30.35S WCI   9
CALDWELL       MOCLDY    19   3  49 NW15G23   30.37R WCI   5
SOMERVILLE     CLOUDY    20   7  57 NW10G20   30.37R WCI   9
ALLAIRE*       CLOUDY    21  10  63 NW13      30.34R WCI   9
TOMS RIVER*    CLOUDY    19  14  79 NW8       30.36R WCI   9

$$
PAZ043-044-047-054-055-060>062-066>071-060500-
EASTERN PENNSYLVANIA

CITY           SKY/WX    TMP DP  RH WIND       PRES   REMARKS
PHILADELPHIA   CLOUDY    22  10  60 N13       30.42R WCI  10
NORTH PHILA    CLOUDY    21  10  62 NW13      30.41R WCI   9
BLUE BELL      CLOUDY    21  12  68 NW5       30.39R WCI  15
DOYLESTOWN     MOCLDY    16   6  65 NW8G18    30.38R WCI   5
QUAKERTOWN*    MOCLDY    18   7  62 N8        30.39R WCI   7
POTTSTOWN      MOCLDY    18   7  62 N8        30.42R WCI   8
LANCASTER      PTCLDY    13   7  77 N7        30.41R WCI   3
COATESVILLE    MOCLDY    19   9  63 N12G17    30.38R WCI   7
READING        PTCLDY    16   4  59 NW10      30.41R WCI   4
ALLENTOWN      PTCLDY    16   2  54 N10       30.41R WCI   4
MOUNT POCONO   PTCLDY     7  -1  70 N10G18    30.24R WCI  -8
HAZLETON       CLEAR     12   0  57 MISG      30.34R
WILKES BARRE   CLEAR     11   0  61 N5        30.38R WCI   3

$$
DEZALL-MDZ008-012-015-019-020-060500-
DELAWARE AND EASTERN MARYLAND

CITY           SKY/WX    TMP DP  RH WIND       PRES   REMARKS
WILMINGTON     CLOUDY    21  11  65 NW9       30.41R WCI  11
DOVER          CLOUDY    22  15  73 NW15      30.40R WCI   9
GEORGETOWN     CLOUDY    22  14  71 N7        30.38R WCI  13
EASTON         CLOUDY    25  19  77 N8        30.45R WCI  16
PATUXENT       CLOUDY    24  18  77 N17       30.41S WCI  11
OCEAN CITY     CLOUDY    22  17  81 N13       30.37R WCI  10
WALLOPS ISLAND FLURRIES  23  19  85 N10       30.36R WCI  12
CAMBRIDGE      CLOUDY    27  18  69 N13       30.40S WCI  16
SALISBURY      CLOUDY    25  16  68 N9        30.38R WCI  15

$$
PAZ001-021-NYZ056-072-MDZ011-DCZ001-060500-
OTHER NEARBY LOCATIONS

CITY           SKY/WX    TMP DP  RH WIND       PRES   REMARKS
HARRISBURG     PTCLDY    19   3  49 NW12      30.42R WCI   7
STATE COLLEGE  PTCLDY    11  -3  53 NW13      30.42R WCI  -4
WILLIAMSPORT   CLEAR     13   0  56 NW7       30.45R WCI   3
BINGHAMTON     CLEAR      5  -1  76 NW9       30.33R WCI  -9
NEW YORK CITY  CLOUDY    20   4  50 NW6G20    30.36R WCI  12
BALTIMORE      CLOUDY    21  12  68 NW7       30.43R WCI  12
WASHINGTON DC  CLOUDY    26  13  57 N13       30.46R WCI  15

$$



USA.gov is the U.S. government's official web portal to all federal, state and local government web resources and services.